GFSGBSN_250_rhum_108.txt.gz
RH
100 100 100 100 93 96 100 100 100 100 100 100 100 100 100 100 97 75 84 91 96 100 100 100 100 100 100 100 100 100 100 100 100 100 100 100 100 100 100 100 100 97 94 100 88 95 100
100 100 99 64 70 80 70 94 100 100 100 100 100 100 99 88 91 97 87 100 100 100 100 100 100 98 99 96 100 95 72 62 55 37 32 39 35 62 76 59 90 100 100 97 100 100 100
100 100 70 38 36 47 53 58 78 70 79 85 72 82 90 98 97 100 100 100 100 95 98 78 84 65 75 100 97 79 63 60 33 37 31 37 41 43 36 31 27 26 29 26 65 100 90
98 51 49 59 64 57 60 78 71 77 89 80 96 93 98 94 80 87 81 84 76 80 94 88 81 80 100 94 78 63 43 31 58 71 75 72 91 86 68 54 40 31 27 26 30 34 44
89 55 66 80 87 79 96 100 100 98 100 100 100 100 100 100 96 90 90 96 84 67 51 54 84 82 68 96 99 78 56 43 38 36 48 76 80 100 92 75 58 46 36 36 33 40 44
76 74 86 90 86 100 100 96 100 100 100 100 100 100 99 100 100 100 93 71 62 37 62 95 99 93 95 77 95 70 75 71 65 56 54 54 91 100 100 99 60 60 51 49 49 46 39
100 99 76 86 70 84 100 100 100 100 100 100 100 100 100 96 86 71 49 44 34 34 40 67 90 100 99 89 89 89 91 69 69 66 54 62 52 99 100 92 65 67 68 66 55 57 54
96 80 67 65 64 88 64 100 100 100 100 100 100 98 100 83 83 82 64 57 39 48 48 60 50 42 64 76 71 86 79 78 71 67 60 90 70 99 98 88 83 79 73 58 58 59 62
70 70 63 68 70 74 94 100 100 100 100 100 100 100 92 95 90 80 60 59 59 60 70 63 86 86 73 67 78 97 84 86 74 67 76 59 78 86 60 63 67 57 54 62 34 26 24
69 62 72 92 86 76 89 100 100 100 99 100 100 96 85 66 70 72 69 80 91 80 70 67 70 78 79 84 76 82 79 86 63 57 58 38 43 39 45 38 44 27 30 21 16 13 9
71 73 65 68 70 67 70 75 93 83 82 89 100 94 100 98 100 100 100 98 97 86 70 77 68 80 78 77 87 77 87 73 72 68 50 53 27 32 38 39 27 14 16 11 9 8 8
69 75 84 81 73 91 73 68 81 66 68 72 76 83 100 100 100 99 100 100 100 100 70 76 80 85 79 82 85 97 94 75 75 70 50 34 20 37 49 34 20 14 10 8 7 7 5
96 100 98 100 97 97 93 95 77 100 100 97 100 98 100 100 100 100 100 100 100 98 100 89 83 74 74 76 70 63 53 66 62 52 43 27 33 47 40 24 20 12 9 9 9 9 8
90 100 97 100 100 100 100 100 100 100 100 100 100 100 100 88 100 100 100 100 89 73 99 100 85 75 81 81 74 58 59 62 62 54 37 31 44 56 33 25 16 12 10 12 10 10 10
46 55 48 46 47 26 35 47 50 82 93 80 78 84 80 85 94 89 100 100 82 100 100 100 95 92 96 89 83 69 50 52 66 53 36 49 58 34 26 15 13 13 18 13 13 16 13
34 35 35 34 31 29 29 40 49 54 62 49 56 80 71 75 86 82 94 61 71 100 89 85 97 96 98 98 78 68 68 58 41 41 47 51 36 22 15 15 12 17 22 21 22 27 22
22 23 23 25 29 32 37 38 49 47 51 43 49 51 46 67 69 61 55 66 91 83 82 75 80 74 64 58 65 82 77 50 54 74 54 46 24 18 14 12 12 20 35 27 29 43 34
24 21 20 22 22 27 27 29 40 31 29 39 54 45 39 46 51 44 53 53 51 45 48 51 54 54 62 71 80 73 74 55 79 61 31 19 19 17 14 12 14 25 34 46 50 68 47
16 18 17 19 19 22 22 25 35 29 22 27 33 31 33 36 32 35 41 45 42 44 44 54 63 67 64 76 61 71 66 61 36 23 19 19 16 15 15 19 19 40 40 45 51 62 65
6 6 6 8 8 10 11 14 26 21 11 15 17 16 21 22 29 31 32 38 49 51 48 52 61 71 69 41 56 62 42 27 22 19 20 16 16 16 19 29 31 49 51 64 71 64 62
5 5 5 5 6 6 6 7 7 7 6 5 6 8 9 10 14 20 24 26 32 39 41 42 37 37 35 42 41 29 21 20 20 20 18 17 20 20 23 37 46 72 72 86 98 100 83
4 4 4 5 4 4 5 5 6 5 4 4 6 8 7 9 11 12 15 18 20 26 23 21 20 23 30 26 24 22 20 20 19 20 18 23 31 36 49 57 79 74 83 100 100 99 100
5 5 5 5 4 4 4 4 4 4 4 4 5 7 7 6 7 9 12 15 16 16 15 16 19 22 20 22 21 21 20 18 20 20 23 38 57 52 61 95 82 87 100 94 100 98 100
4 4 5 5 5 5 5 5 4 4 5 5 5 5 5 6 6 9 11 13 14 14 15 16 16 17 21 22 20 21 20 21 22 26 38 48 52 66 86 92 94 100 89 96 98 99 99
4 5 5 5 5 5 5 5 5 4 3 4 4 4 5 6 7 7 8 10 13 14 14 16 18 22 22 20 20 20 22 24 35 42 48 58 81 96 93 98 100 99 100 100 100 100 99
5 6 6 6 7 6 5 4 4 4 4 4 5 5 6 7 8 8 9 11 14 14 17 20 19 20 23 20 20 24 37 42 50 65 77 84 94 100 100 100 100 99 100 99 99 99 85
7 7 7 6 5 5 5 4 4 4 4 5 5 6 7 8 8 10 12 14 15 17 20 20 20 22 21 22 26 34 55 67 78 92 97 100 100 100 100 100 100 100 100 100 94 82 76
8 7 6 6 5 5 5 4 4 5 5 5 6 7 7 8 9 11 14 16 20 22 22 21 21 22 21 27 34 69 82 95 94 100 100 100 100 100 100 100 99 92 87 83 75 70 56
9 8 6 6 6 5 5 5 5 6 6 7 7 8 10 10 12 14 17 21 22 22 22 22 23 25 27 41 64 83 96 93 100 100 100 100 100 100 97 91 81 72 73 72 70 52 43

GFSGBSN_250_rhum_114.txt.gz
RH
69 96 80 98 100 93 100 100 93 91 100 74 67 52 43 87 89 97 100 100 100 89 66 58 63 55 100 100 98 96 100 96 84 88 100 100 100 89 98 100 100 100 100 100 100 87 67
42 53 69 74 74 87 84 94 98 73 93 91 78 56 54 60 100 100 100 100 100 100 82 52 40 52 64 100 96 91 95 98 100 100 100 88 95 90 89 88 97 91 88 91 94 96 71
42 39 63 53 74 95 100 93 100 100 97 96 88 76 58 56 92 100 100 100 100 100 87 60 44 40 69 99 100 100 100 99 74 88 100 97 88 85 72 69 62 96 91 100 93 95 89
53 48 48 44 58 71 95 100 100 99 86 99 100 99 92 66 74 83 95 99 100 96 81 61 43 51 82 95 100 100 97 100 99 89 97 92 94 77 83 87 87 59 56 65 96 97 86
65 68 83 68 66 67 65 86 93 98 99 97 85 74 86 77 70 80 86 88 89 90 83 70 47 40 54 80 88 91 100 100 100 100 100 100 100 83 64 55 43 39 40 41 42 46 48
53 74 95 100 100 100 100 100 100 98 99 100 100 100 100 100 100 96 94 100 83 93 81 70 54 41 40 49 82 99 100 100 100 91 89 100 97 89 72 63 56 51 50 49 45 45 55
34 45 51 58 60 64 75 100 98 79 81 90 78 70 82 69 95 86 82 100 89 87 84 96 93 61 52 51 52 78 99 100 100 100 95 82 80 86 74 63 56 53 47 48 61 60 56
43 37 50 39 46 57 52 68 94 100 100 94 98 100 97 89 89 92 93 83 94 85 77 81 64 58 56 59 60 90 100 100 100 100 100 96 80 77 79 71 53 51 51 50 52 65 69
86 66 58 52 53 54 62 59 82 89 83 81 80 80 83 83 86 89 85 86 80 82 69 66 75 79 74 58 93 100 100 100 100 100 100 97 86 94 88 64 69 65 69 68 60 76 77
52 69 87 89 83 72 59 66 57 76 88 82 71 66 82 88 90 89 87 84 92 82 70 68 70 75 83 91 98 100 100 100 100 99 92 73 87 91 90 91 98 84 81 69 65 56 51
77 65 67 69 76 76 82 78 75 74 76 80 72 56 63 70 73 87 82 87 88 92 84 85 79 71 80 100 100 95 95 91 90 85 87 77 81 78 69 83 84 77 87 81 67 54 33
98 94 88 83 82 78 80 81 76 76 71 63 62 61 62 74 76 88 85 86 78 79 80 87 84 81 88 100 98 96 84 87 100 96 87 92 77 80 90 81 90 82 70 71 63 50 37
100 100 100 100 99 97 95 85 80 83 80 80 84 84 88 76 79 81 89 88 80 63 78 78 86 83 85 76 82 84 81 81 99 97 94 93 98 97 92 99 96 80 70 84 57 41 42
76 98 99 100 100 100 99 94 100 98 97 100 100 100 100 99 100 99 94 87 80 75 89 95 81 94 77 68 77 62 68 65 66 92 100 92 100 98 100 95 74 76 68 56 38 44 37
60 85 82 89 96 94 91 89 88 100 100 100 100 93 85 100 100 93 93 85 77 86 84 85 91 74 85 79 87 89 87 82 93 89 95 85 73 84 82 56 51 57 48 42 41 42 34
27 32 39 56 82 88 89 93 82 84 84 96 95 92 84 77 76 77 81 70 60 86 100 86 84 87 88 95 85 84 71 74 100 92 87 81 78 85 80 59 50 48 44 50 52 46 37
28 27 33 38 47 46 51 47 48 56 62 76 83 82 86 91 91 72 54 47 61 87 90 93 97 98 91 97 85 66 64 90 100 75 58 48 64 83 56 50 44 50 48 54 66 47 30
15 18 25 32 39 43 40 43 50 59 63 60 69 56 76 100 94 74 56 57 62 68 98 99 89 69 73 61 51 55 71 68 64 60 51 41 45 42 50 45 41 56 73 59 47 32 28
7 11 15 18 23 27 29 32 34 40 44 52 52 46 47 53 66 60 52 48 42 63 81 69 53 62 69 56 45 48 60 75 54 46 48 47 46 53 50 49 43 50 54 40 39 20 19
5 6 8 9 12 20 26 25 26 29 34 33 32 32 29 36 44 45 55 45 42 46 52 40 41 37 34 38 34 34 36 36 36 42 54 53 50 52 58 48 42 36 34 49 24 18 17
5 5 6 7 8 10 10 11 17 24 24 26 27 32 34 30 33 45 36 33 29 27 35 38 36 34 33 36 37 34 35 31 39 42 50 47 51 44 50 66 51 30 40 30 18 20 17
6 6 6 5 5 7 8 9 11 10 10 10 14 19 20 20 29 32 30 29 33 39 37 38 39 49 43 37 42 38 39 41 44 45 45 43 35 37 37 35 30 38 29 21 20 19 20
4 4 5 5 5 6 6 6 6 6 6 7 10 11 10 11 12 14 18 20 25 23 18 18 22 29 22 22 20 27 34 34 31 30 26 28 28 33 27 32 32 23 25 23 20 20 43
4 4 4 5 5 6 6 6 6 6 6 6 6 6 6 6 6 7 9 8 8 8 10 10 13 14 15 14 15 16 18 17 19 21 21 22 24 20 26 31 20 23 21 19 26 55 62
4 4 4 4 5 5 5 6 6 6 6 6 6 6 6 6 6 6 6 6 6 8 10 11 10 10 11 12 13 15 16 18 18 18 19 18 18 26 24 22 22 21 32 34 55 78 73
4 4 4 5 5 5 5 5 6 6 6 6 6 6 6 7 6 6 5 5 6 7 7 7 8 8 9 11 14 14 16 17 15 16 17 23 26 23 22 21 23 33 40 62 77 76 81
4 3 4 4 4 4 4 4 5 5 5 6 6 6 6 8 7 6 5 5 6 6 7 8 8 8 10 13 13 14 16 13 17 21 24 22 21 21 21 25 55 72 70 91 79 77 82
4 4 4 4 4 4 4 4 5 5 5 6 6 6 6 6 6 6 6 6 6 8 9 9 9 11 12 11 12 15 18 19 22 23 23 22 22 23 33 78 89 83 83 86 91 94 85
4 4 4 4 4 4 5 5 5 5 5 6 6 7 6 8 8 7 7 8 8 9 9 10 10 9 12 13 18 19 20 23 24 22 24 24 26 41 77 85 89 98 97 93 89 86 95

GFSGBSN_250_rhum_117.txt.gz
RH
60 60 58 58 80 71 72 100 87 100 97 100 100 100 100 100 100 100 83 78 81 50 46 74 96 100 100 100 85 96 89 76 62 44 51 59 73 72 87 92 98 94 81 78 92 100 90
31 42 48 51 59 78 67 86 88 75 78 79 87 83 96 100 100 100 87 81 97 85 53 52 93 100 100 100 99 97 96 79 66 53 58 70 64 70 69 90 87 86 90 96 91 76 70
36 36 36 45 37 42 50 50 57 62 61 65 73 73 79 97 80 74 98 88 82 98 86 60 47 76 92 100 100 100 92 81 62 56 56 58 61 72 80 95 94 97 89 72 86 99 82
46 45 56 39 48 35 48 39 44 39 41 53 61 68 71 86 94 100 87 83 80 81 69 44 37 53 84 98 98 88 88 83 64 50 44 48 56 64 73 92 100 93 93 100 100 100 89
78 51 48 55 51 54 40 35 33 34 38 49 52 55 61 83 81 97 86 92 84 93 72 67 67 66 67 81 94 80 77 85 80 73 72 45 42 58 81 96 77 86 100 100 100 97 84
44 98 90 70 64 64 64 67 62 64 59 50 53 77 58 70 88 87 92 86 77 71 83 64 52 58 50 85 88 98 87 89 82 70 68 56 49 62 100 81 78 90 90 91 96 87 74
30 29 64 100 77 97 100 100 100 100 82 98 89 98 100 100 100 100 91 100 100 74 89 90 94 78 69 75 81 84 72 76 73 68 69 62 62 94 86 100 94 100 97 91 98 90 76
40 35 46 51 46 50 43 46 36 34 30 51 54 50 53 68 70 80 77 93 70 76 71 80 66 68 64 64 68 70 71 79 73 93 95 81 75 93 100 100 100 100 100 100 91 82 72
76 71 68 65 55 58 50 57 59 67 48 46 59 49 66 66 72 72 75 81 74 75 69 83 77 74 84 72 77 88 84 87 91 87 99 83 88 100 100 100 100 100 94 90 92 86 81
99 92 98 90 78 96 81 81 84 84 95 96 75 83 65 80 90 92 100 87 94 88 79 84 82 70 70 81 79 90 88 92 96 98 95 89 100 100 97 91 96 81 82 80 78 75 75
100 100 100 100 100 96 82 70 62 58 61 67 79 72 88 92 99 100 100 100 99 95 85 80 80 68 64 77 85 89 86 92 99 93 82 78 82 100 100 100 89 94 100 91 80 74 72
100 100 100 100 100 87 80 72 66 65 62 66 71 83 68 79 76 88 84 89 94 84 74 72 75 70 61 64 75 84 87 86 85 87 94 100 93 93 88 88 94 100 96 81 74 76 56
100 100 100 100 97 90 82 83 83 79 91 97 88 88 99 100 100 91 85 85 85 79 82 68 68 71 72 71 78 72 77 89 98 98 100 90 90 92 86 82 77 72 70 66 68 66 67
65 72 90 92 84 77 86 90 96 94 100 100 100 98 100 100 100 98 96 95 81 90 88 82 74 89 78 78 83 74 76 84 86 77 86 88 88 90 92 90 85 81 79 82 71 74 65
56 61 59 62 61 62 62 65 80 93 80 95 100 92 95 97 100 100 93 82 69 76 83 89 94 89 82 80 72 69 72 67 79 82 88 92 89 98 95 96 88 84 83 83 74 68 65
32 37 43 54 47 41 46 48 62 65 66 97 99 100 99 100 100 99 100 87 79 90 92 82 79 83 91 100 83 75 63 60 77 82 82 70 71 77 89 87 92 96 68 78 86 69 56
13 17 23 33 35 38 37 42 49 58 56 69 93 94 100 100 100 100 87 78 92 86 95 87 83 87 99 98 82 81 72 72 81 76 82 97 93 82 82 86 84 66 56 61 68 64 37
6 8 13 17 25 33 40 44 35 42 47 54 60 97 100 100 100 100 82 91 100 100 96 94 80 82 93 100 90 74 80 86 85 68 69 76 79 70 70 65 64 51 41 42 44 37 33
4 6 6 9 14 18 22 40 55 79 69 57 43 74 91 86 80 72 79 72 69 85 100 91 85 95 99 87 78 75 77 74 61 56 52 60 68 53 36 42 42 38 50 46 41 35 45
4 4 5 5 7 10 18 22 23 33 51 68 65 67 64 62 62 69 62 58 60 70 69 66 62 54 46 40 48 50 50 47 42 41 39 46 44 42 37 37 41 44 54 50 32 40 51
4 4 4 4 5 6 8 12 18 21 27 30 29 29 40 43 58 78 70 54 41 42 45 53 50 48 53 44 47 41 49 52 47 45 38 41 42 44 44 51 48 49 57 56 34 37 31
2 2 4 4 5 6 6 6 10 12 13 18 18 19 24 35 38 52 53 41 42 41 36 40 36 40 32 27 37 44 44 44 44 37 40 49 52 53 52 54 50 48 46 41 34 36 25
3 4 4 5 6 6 6 7 7 8 8 8 12 12 16 24 32 29 34 44 40 36 32 32 38 41 32 48 48 46 54 42 40 43 42 42 43 42 39 40 39 23 29 31 42 31 36
3 4 4 4 4 5 5 6 6 5 6 7 8 10 9 11 10 12 14 15 18 21 18 21 21 22 30 34 41 54 29 23 25 25 27 27 32 26 22 21 16 20 30 36 32 33 23
3 3 4 4 4 4 4 5 6 6 6 7 7 7 8 8 8 9 10 11 12 12 10 10 11 14 19 26 32 28 21 16 12 17 23 18 15 15 15 17 17 27 29 35 32 21 25
3 4 4 4 4 5 5 5 6 6 6 7 7 7 7 7 7 7 8 9 8 8 8 11 10 12 12 11 12 12 11 12 13 14 14 14 14 15 17 18 22 31 32 28 21 26 26
3 3 4 4 4 4 5 5 5 5 6 6 7 7 7 7 7 7 8 7 7 8 10 10 10 10 10 9 9 9 10 12 11 12 14 14 14 16 17 20 33 34 25 22 25 32 44
3 3 4 4 4 4 5 5 5 5 6 7 7 6 7 8 8 9 8 7 8 9 8 8 8 8 9 9 9 10 10 10 11 12 13 14 16 19 21 31 31 22 20 24 37 57 80
3 4 4 4 4 4 5 5 5 6 6 6 6 7 7 8 8 7 7 8 7 8 9 8 10 10 8 8 8 10 10 10 12 14 16 19 22 21 25 26 24 21 26 42 64 89 100

GFSGBSN_250_rhum_123.txt.gz
RH
72 80 69 63 51 56 59 47 49 63 61 57 70 75 57 40 51 44 96 80 71 94 68 58 96 100 100 100 100 100 98 86 93 91 80 86 92 78 64 56 50 63 60 76 71 62 55
91 96 90 82 77 84 68 64 48 65 51 44 53 75 66 47 48 42 40 35 42 83 96 81 54 72 98 100 96 71 65 69 83 92 88 79 82 97 90 89 66 57 60 72 73 69 62
65 88 53 46 66 80 76 78 86 58 76 56 61 74 70 54 47 45 44 51 41 48 76 95 79 62 75 75 60 57 64 73 76 83 79 96 98 100 98 83 65 54 49 56 54 76 74
39 29 36 33 54 81 100 100 84 50 70 65 61 62 64 36 63 45 48 54 46 48 54 84 68 56 64 65 61 62 74 77 90 93 89 100 100 100 100 92 82 77 62 62 86 69 58
67 55 38 35 33 42 65 100 89 69 80 73 52 58 51 28 42 54 47 53 55 55 80 73 78 60 60 55 72 82 85 94 99 100 100 100 94 100 98 99 94 93 92 90 78 72 63
50 65 44 39 38 38 36 56 64 65 73 81 67 61 82 64 36 75 82 62 70 63 68 100 94 68 60 75 74 81 95 100 100 100 99 100 100 100 100 78 81 91 80 77 69 59 52
58 57 73 56 61 44 67 42 65 76 100 100 72 55 66 100 49 56 76 71 78 82 89 86 100 98 100 100 100 100 95 81 83 85 77 76 84 99 90 100 89 68 75 70 63 59 57
68 74 71 59 96 47 57 73 54 93 69 100 100 98 76 77 84 41 37 44 60 75 88 100 100 100 100 100 100 100 86 52 58 78 76 73 68 83 93 93 88 78 72 72 69 63 64
94 91 87 64 78 90 68 60 82 59 69 84 97 100 97 67 80 61 44 42 47 52 53 100 100 100 98 98 99 72 76 78 80 79 86 68 75 91 84 94 90 75 84 86 69 77 71
100 100 100 90 81 99 85 79 60 49 46 66 74 77 95 74 74 78 59 66 44 50 48 68 99 91 96 83 96 100 84 84 75 67 71 80 98 87 94 98 99 93 87 87 87 81 82
100 100 100 100 100 100 100 93 100 99 98 83 62 62 94 78 77 64 51 100 77 51 36 56 61 60 84 96 100 100 100 99 87 75 79 78 72 94 100 100 100 100 100 96 91 98 98
98 100 100 100 100 100 100 100 100 96 71 100 95 66 83 86 74 80 80 100 81 73 45 47 60 84 84 92 100 100 100 100 89 74 74 80 80 89 100 100 100 99 100 100 99 89 83
77 100 94 100 100 100 100 100 100 96 100 100 100 82 60 89 90 85 98 100 97 71 68 51 63 66 82 100 100 100 100 100 100 94 85 79 93 96 100 100 100 100 99 92 80 77 73
15 20 35 24 59 100 100 100 100 100 100 100 100 100 100 100 100 100 100 100 99 86 99 86 92 63 75 87 100 100 100 100 100 100 100 82 94 100 100 97 100 97 83 86 75 69 70
8 11 11 13 21 36 92 100 100 100 100 100 100 100 100 100 100 100 100 100 100 100 100 90 90 78 100 100 99 100 100 100 99 100 100 93 85 91 93 99 98 98 96 81 76 70 71
7 8 7 10 11 19 22 27 31 37 48 98 100 96 96 100 100 100 100 100 100 100 100 99 94 98 84 100 100 100 100 93 97 100 100 90 88 82 80 84 98 95 86 84 91 85 73
5 5 6 7 8 10 12 18 25 30 39 45 49 55 80 100 100 100 99 100 100 100 100 100 100 100 100 100 100 100 98 100 99 94 92 90 76 71 69 89 83 76 71 78 86 80 64
3 3 5 5 6 8 9 8 14 18 30 46 50 54 69 80 81 73 69 100 100 100 100 100 100 100 100 100 100 100 92 94 100 100 94 89 76 61 60 62 72 89 87 74 72 73 71
2 3 3 4 4 6 7 9 9 11 14 19 33 46 61 70 70 69 81 96 84 100 96 100 100 100 100 100 100 100 100 100 99 98 92 96 89 78 63 65 77 82 98 85 76 72 60
3 3 3 3 3 5 6 7 9 9 7 12 13 28 62 57 64 69 63 76 91 99 100 100 100 100 100 100 100 100 100 99 100 99 97 94 87 79 74 78 72 67 75 91 77 55 56
3 3 4 3 3 4 4 6 7 7 8 8 8 12 27 35 52 46 54 92 96 84 88 94 97 99 100 100 100 100 100 100 88 77 76 83 71 78 77 72 62 72 63 63 60 54 56
2 2 3 4 5 4 5 5 5 5 5 5 4 6 11 17 24 28 43 40 53 78 88 95 90 94 90 89 93 93 90 79 71 70 72 71 65 74 76 84 78 64 54 60 56 57 56
2 2 3 3 3 4 4 5 4 4 4 3 4 6 8 11 13 16 18 28 55 59 48 60 66 73 69 76 73 72 76 60 53 59 62 80 94 75 55 67 57 26 51 45 48 58 73
3 3 3 3 3 3 3 3 3 4 4 4 4 7 8 9 12 13 16 23 34 38 46 50 43 44 52 52 53 54 55 54 50 45 46 56 59 52 51 58 41 34 33 50 46 62 44
3 4 4 3 3 3 4 3 3 4 5 6 7 7 8 6 7 10 11 15 18 19 21 25 32 38 43 45 31 22 25 23 35 34 33 48 55 52 58 48 27 13 33 49 55 35 32
3 3 3 3 3 3 3 4 4 4 5 5 7 8 7 5 6 8 8 10 13 14 16 19 25 22 18 19 24 24 15 29 29 41 51 70 67 52 31 25 13 15 26 44 34 19 30
2 2 3 3 3 4 5 5 5 6 6 5 6 5 4 5 6 8 10 11 10 10 13 15 18 19 17 20 20 20 19 21 22 28 35 37 45 30 20 10 10 15 22 26 15 16 19
3 3 3 3 3 3 3 3 3 4 3 3 4 4 4 4 6 8 8 9 9 10 12 13 13 13 13 14 13 14 15 16 17 20 19 16 15 14 13 10 11 15 15 14 15 15 16
2 2 3 3 3 3 3 3 3 4 5 7 7 6 5 5 6 8 8 9 10 10 11 10 10 11 11 10 11 12 13 14 14 12 12 12 11 10 9 11 13 17 15 14 15 15 18

GFSGBSN_250_rhum_129.txt.gz
RH
69 86 96 99 100 99 84 79 100 91 100 87 84 62 69 52 46 85 98 92 68 75 77 77 82 91 100 94 74 60 44 39 35 37 56 54 56 65 71 52 51 42 67 56 47 52 75
78 76 100 95 100 88 47 64 75 100 100 98 98 100 93 97 92 82 94 96 84 90 100 96 78 84 70 69 84 60 44 62 46 32 35 39 39 52 68 82 63 51 60 50 49 58 97
84 97 96 100 100 81 54 64 59 93 100 100 100 100 100 100 100 100 100 100 100 100 88 98 96 100 81 70 54 48 65 76 66 42 35 42 38 44 68 63 51 71 62 51 86 100 100
73 78 97 81 61 51 48 60 62 88 96 99 100 100 94 84 76 56 87 100 100 100 100 84 70 100 84 80 60 63 73 68 65 46 39 44 41 52 81 62 64 71 64 67 62 90 75
68 77 66 73 54 42 42 59 57 60 77 55 79 92 76 64 59 43 63 100 100 100 100 94 85 96 96 98 79 92 98 58 59 54 42 57 63 78 74 75 77 75 75 80 68 87 84
65 86 91 70 59 45 41 49 57 63 61 41 51 49 54 44 40 48 57 74 100 100 100 74 83 83 90 100 81 76 87 52 44 47 50 66 88 92 94 96 91 80 100 99 100 100 83
94 96 100 66 68 48 41 47 36 40 48 33 34 40 52 49 50 40 51 61 98 100 88 65 84 100 92 100 94 85 94 98 97 64 45 51 94 100 100 100 100 100 100 100 100 91 86
100 100 100 100 98 98 84 66 100 51 56 79 56 38 64 44 42 55 53 55 56 83 95 96 92 76 81 89 98 98 100 100 96 57 43 49 54 86 100 100 100 100 99 93 96 88 88
92 100 100 100 100 100 95 95 82 82 79 74 67 65 42 67 44 54 77 53 58 74 76 78 71 77 74 62 92 100 100 100 100 97 92 74 53 78 74 88 86 88 95 92 98 96 95
100 100 100 100 100 100 100 100 97 80 66 78 66 68 58 53 52 63 76 93 62 57 77 91 100 83 85 84 88 100 99 100 100 100 92 74 72 66 69 68 90 77 60 90 90 100 100
100 99 100 100 100 92 100 100 98 99 68 59 88 70 86 89 84 68 74 82 100 77 78 79 88 92 89 100 100 100 100 100 100 100 100 100 97 89 80 62 53 90 89 93 88 100 100
38 39 44 50 92 100 100 100 100 100 100 100 100 100 94 84 80 79 84 52 95 99 81 60 66 100 100 100 100 100 100 100 100 100 100 100 100 100 93 76 84 78 80 92 73 75 86
35 32 34 32 34 62 100 100 100 100 100 100 100 99 100 100 100 94 93 80 76 75 99 68 54 98 87 99 100 100 100 100 100 100 100 100 99 100 100 100 100 97 86 84 100 91 72
33 38 35 35 32 33 43 100 100 100 100 100 100 100 100 100 100 79 98 100 95 79 80 88 44 70 100 74 99 88 100 100 100 100 100 100 100 100 100 100 100 98 100 94 99 96 92
21 25 30 33 34 35 34 32 53 96 99 100 100 100 100 100 100 100 100 100 100 85 100 100 67 41 67 91 83 100 97 99 100 100 100 100 100 100 100 100 100 100 100 100 98 100 100
15 18 20 22 28 31 29 39 41 43 57 77 57 91 100 100 100 100 100 100 100 100 100 100 100 87 96 98 76 98 88 99 100 90 99 100 100 100 100 100 100 100 100 100 100 100 100
17 18 18 19 21 23 25 30 29 35 46 47 44 34 34 45 100 100 100 100 100 100 100 100 100 100 100 98 94 100 100 95 100 91 95 99 100 85 98 100 100 100 100 100 100 94 100
12 13 13 12 13 13 14 14 15 21 34 36 31 30 26 27 32 36 39 89 67 100 100 100 100 100 100 100 100 100 100 100 100 100 100 100 100 100 100 100 100 100 100 100 100 100 73
10 10 10 9 9 9 9 9 10 11 14 19 24 22 24 24 20 21 28 29 31 32 64 78 100 100 100 100 100 100 100 100 100 100 100 100 100 100 100 100 100 100 100 100 100 98 72
9 9 9 9 8 8 9 9 10 9 10 10 11 13 13 13 13 10 15 17 24 29 35 50 71 95 100 97 100 100 100 100 100 100 100 100 100 98 100 100 98 100 100 96 86 91 90
6 6 5 5 6 6 6 6 7 8 9 10 10 10 10 10 10 11 12 14 16 19 25 34 37 46 60 78 96 100 100 100 100 100 100 100 100 100 100 100 100 100 100 88 87 93 82
5 5 4 4 4 4 4 4 5 5 5 6 8 10 9 10 11 10 10 8 8 13 17 19 25 50 82 85 84 88 98 88 71 80 100 100 100 100 100 100 100 100 99 84 85 100 92
4 4 4 4 4 4 5 5 4 4 4 4 5 6 8 10 10 9 8 10 10 9 10 15 19 22 30 55 80 78 72 86 80 95 97 100 89 99 77 100 97 92 100 100 96 89 85
5 5 5 4 4 4 4 5 5 4 4 4 4 6 6 6 6 8 9 9 6 6 9 12 15 18 21 24 30 46 74 94 82 80 85 85 84 75 75 100 96 86 92 100 96 96 97
5 4 4 4 4 4 4 4 4 4 4 6 7 6 6 5 6 6 5 4 5 7 10 11 13 16 18 20 21 24 26 30 32 46 69 90 99 100 97 84 79 75 90 98 84 65 86
4 4 4 4 4 4 4 3 4 4 5 5 6 6 7 6 5 5 4 4 5 6 8 12 11 14 15 16 18 19 21 23 23 29 44 56 73 84 78 75 67 78 91 91 91 52 95
3 3 3 3 3 4 4 4 4 4 5 5 5 5 6 6 6 6 5 5 5 5 7 10 12 13 14 15 16 16 17 17 18 20 28 34 39 46 58 64 56 62 57 46 62 67 51
3 3 3 3 3 4 4 4 5 5 4 4 4 5 5 6 7 6 5 5 7 8 10 12 16 18 16 15 14 14 14 18 18 19 19 20 20 23 31 31 26 36 37 34 38 46 45
3 3 3 3 3 3 4 4 5 6 5 4 5 5 5 6 5 6 7 9 10 10 12 13 14 15 11 11 12 12 12 15 14 15 17 16 19 19 18 20 21 20 19 21 21 20 21